Date String (YYYY-MM-DD hh:mm:ss) UTC,Instrument flags,Ambient pressure (hPa),Sample flow (lpm),Bypass flow (lpm),Sample temperature (°C),Ambient temperature (°C),ASC tube jacket temperature (°C),LED temperature (°C),Box temperature (°C),Sample RH (%),Span deviation,Mass concentration (μg/m³),Mass concentration (μg/m³),Mass concentration (μg/m³)
DateTimeUTC,F1_M11,P_M11,Q1_M11,Q2_M11,T1_M11,T2_M11,T3_M11,T4_M11,T5_M11,U1_M11,ZSPAN_M11,X2_M11,X0_M11,X1_M11
2022-06-29 18:00:00,,0829.0,5.00,0.00,29.1,27.2,00.0,37.8,30.9,16.9,0000.0,0003.77,0008.53,0003.12
2022-06-29 18:01:00,,0829.0,5.00,0.00,29.0,27.3,00.0,37.8,30.9,17.2,0000.0,0003.73,0009.09,0003.11
2022-06-29 18:02:00,,0829.1,4.99,0.00,29.0,27.4,00.0,37.8,30.9,17.5,0000.0,0003.72,0009.10,0003.11
2022-06-29 18:03:00,,0829.1,4.99,0.00,29.1,27.6,00.0,37.8,31.0,17.4,0000.0,0003.70,0009.11,0003.11
2022-06-29 18:04:00,,0829.0,5.01,0.00,29.1,27.8,00.0,37.8,31.1,18.1,0000.0,0003.69,0009.48,0003.11
2022-06-29 18:05:00,,0829.0,4.99,0.00,29.1,27.8,00.0,37.8,31.1,17.9,0000.0,0003.71,0010.44,0003.12
2022-06-29 18:06:00,,0829.0,4.99,0.00,29.1,27.3,00.0,37.8,30.9,17.8,0000.0,0003.75,0009.74,0003.14
2022-06-29 18:07:00,,0829.0,4.99,0.00,29.0,27.0,00.0,37.7,30.8,17.6,0000.0,0003.77,0010.47,0003.15
2022-06-29 18:08:00,,0829.1,5.00,0.00,29.0,27.1,00.0,37.7,30.9,17.9,0000.0,0003.75,0010.57,0003.15
2022-06-29 18:09:00,,0829.0,5.00,0.00,29.0,27.2,00.0,37.7,30.9,17.3,0000.0,0003.72,0010.41,0003.14
2022-06-29 18:10:00,,0829.1,4.98,0.00,29.0,27.4,00.0,37.8,30.9,17.1,0000.0,0003.73,0010.38,0003.13
2022-06-29 18:11:00,,0829.0,5.00,0.00,29.0,27.6,00.0,37.8,31.0,17.4,0000.0,0003.76,0010.54,0003.13
2022-06-29 18:12:00,,0829.0,5.00,0.00,29.1,27.8,00.0,37.8,31.1,17.3,0000.0,0003.77,0009.96,0003.13
2022-06-29 18:13:00,,0829.0,4.99,0.00,29.1,28.0,00.0,37.8,31.1,17.7,0000.0,0003.75,0009.95,0003.13
2022-06-29 18:14:00,,0829.0,4.99,0.00,29.1,27.7,00.0,37.8,31.0,17.3,0000.0,0003.75,0009.80,0003.13
2022-06-29 18:15:00,,0828.9,5.00,0.00,29.0,27.1,00.0,37.7,30.8,17.6,0000.0,0003.77,0010.14,0003.13
2022-06-29 18:16:00,,0828.9,5.00,0.00,29.0,27.0,00.0,37.7,30.8,17.8,0000.0,0003.76,0009.43,0003.13
2022-06-29 18:17:00,,0829.0,5.01,0.00,29.0,27.1,00.0,37.7,30.9,17.8,0000.0,0003.74,0009.36,0003.12
2022-06-29 18:18:00,,0829.0,5.00,0.00,29.0,27.3,00.0,37.8,30.9,17.6,0000.0,0003.75,0008.63,0003.11
2022-06-29 18:19:00,,0829.0,5.00,0.00,29.0,27.5,00.0,37.8,31.0,17.9,0000.0,0003.75,0008.42,0003.11
2022-06-29 18:20:00,,0828.9,5.00,0.00,29.0,27.7,00.0,37.8,31.0,17.7,0000.0,0003.73,0009.15,0003.12
2022-06-29 18:21:00,,0829.0,5.01,0.00,29.1,27.9,00.0,37.8,31.1,17.8,0000.0,0003.76,0009.46,0003.13
2022-06-29 18:22:00,,0829.0,5.00,0.00,29.1,27.6,00.0,37.8,31.0,17.7,0000.0,0003.74,0009.32,0003.13
2022-06-29 18:23:00,,0829.0,5.00,0.00,29.0,27.0,00.0,37.7,30.8,18.2,0000.0,0003.73,0008.99,0003.13
2022-06-29 18:24:00,,0829.0,5.00,0.00,29.0,27.0,00.0,37.7,30.8,18.4,0000.0,0003.72,0008.90,0003.13
2022-06-29 18:25:00,,0829.1,5.01,0.00,29.0,27.1,00.0,37.7,30.8,18.6,0000.0,0003.74,0009.39,0003.13
2022-06-29 18:26:00,,0829.0,4.99,0.00,29.0,27.3,00.0,37.7,30.9,18.8,0000.0,0003.76,0009.21,0003.14
2022-06-29 18:27:00,,0829.0,5.00,0.00,29.0,27.5,00.0,37.7,30.9,18.2,0000.0,0003.80,0008.99,0003.15
2022-06-29 18:28:00,,0829.0,5.00,0.00,29.0,27.7,00.0,37.8,31.0,17.6,0000.0,0003.81,0009.10,0003.15
2022-06-29 18:29:00,,0829.0,5.00,0.00,29.1,27.9,00.0,37.8,31.0,17.9,0000.0,0003.80,0009.25,0003.16
2022-06-29 18:30:00,,0829.0,5.00,0.00,29.1,27.6,00.0,37.7,31.0,17.3,0000.0,0003.79,0010.25,0003.16
2022-06-29 18:31:00,,0829.0,5.00,0.00,29.0,27.0,00.0,37.7,30.8,17.4,0000.0,0003.84,0010.64,0003.15
2022-06-29 18:32:00,,0828.9,5.00,0.00,29.0,26.9,00.0,37.7,30.7,17.7,0000.0,0003.81,0010.38,0003.14
2022-06-29 18:33:00,,0828.8,4.99,0.00,28.9,27.1,00.0,37.7,30.8,17.6,0000.0,0003.77,0010.91,0003.13
2022-06-29 18:34:00,,0828.8,5.01,0.00,28.9,27.2,00.0,37.7,30.8,17.3,0000.0,0003.77,0011.20,0003.12
2022-06-29 18:35:00,,0829.0,4.99,0.00,29.0,27.4,00.0,37.7,30.9,17.5,0000.0,0003.78,0012.05,0003.11
2022-06-29 18:36:00,,0828.8,5.00,0.00,29.0,27.7,00.0,37.7,30.9,17.7,0000.0,0003.77,0012.02,0003.10
2022-06-29 18:37:00,,0829.0,4.99,0.00,29.0,27.9,00.0,37.7,31.0,17.7,0000.0,0003.77,0011.78,0003.11
2022-06-29 18:38:00,,0828.9,5.00,0.00,29.0,27.9,00.0,37.7,31.0,17.4,0000.0,0003.72,0011.50,0003.08
2022-06-29 18:39:00,,0828.9,5.00,0.00,29.0,27.3,00.0,37.7,30.9,17.6,0000.0,0003.71,0012.56,0003.06
2022-06-29 18:40:00,,0828.8,5.00,0.00,29.0,27.0,00.0,37.7,30.8,17.9,0000.0,0003.72,0012.91,0003.06
2022-06-29 18:41:00,,0828.9,5.00,0.00,28.9,27.0,00.0,37.7,30.8,17.9,0000.0,0003.79,0012.55,0003.08
2022-06-29 18:42:00,,0829.0,5.00,0.00,28.9,27.1,00.0,37.7,30.8,18.0,0000.0,0003.81,0012.16,0003.07
2022-06-29 18:43:00,,0829.1,5.00,0.00,28.9,27.3,00.0,37.7,30.9,17.9,0000.0,0003.90,0012.75,0003.09
2022-06-29 18:44:00,,0828.9,5.01,0.00,29.0,27.6,00.0,37.7,30.9,18.1,0000.0,0003.96,0012.84,0003.11
2022-06-29 18:45:00,,0828.8,4.99,0.00,29.0,27.8,00.0,37.7,31.0,18.0,0000.0,0003.99,0013.35,0003.14
2022-06-29 18:46:00,,0828.9,4.99,0.00,29.0,27.9,00.0,37.7,31.0,18.4,0000.0,0004.03,0012.50,0003.16
2022-06-29 18:47:00,,0829.2,5.01,0.00,29.0,27.6,00.0,37.7,31.0,18.3,0000.0,0004.04,0012.20,0003.17
2022-06-29 18:48:00,,0829.2,5.01,0.00,29.0,27.0,00.0,37.7,30.8,18.2,0000.0,0004.02,0012.08,0003.17
2022-06-29 18:49:00,,0829.0,5.00,0.00,29.0,26.9,00.0,37.6,30.8,18.3,0000.0,0004.01,0012.09,0003.18
2022-06-29 18:50:00,,0828.8,4.99,0.00,28.9,27.0,00.0,37.7,30.8,18.1,0000.0,0004.02,0011.35,0003.18
2022-06-29 18:51:00,,0828.8,5.00,0.00,28.9,27.2,00.0,37.7,30.8,18.3,0000.0,0004.00,0010.45,0003.18
2022-06-29 18:52:00,,0828.9,5.00,0.00,28.9,27.4,00.0,37.7,30.9,18.6,0000.0,0003.96,0010.17,0003.18
2022-06-29 18:53:00,,0828.8,5.01,0.00,29.0,27.6,00.0,37.7,30.9,19.0,0000.0,0003.97,0009.58,0003.19
2022-06-29 18:54:00,,0828.8,5.00,0.00,29.0,27.8,00.0,37.7,31.0,18.6,0000.0,0003.91,0008.92,0003.20
2022-06-29 18:55:00,,0828.9,5.00,0.00,29.0,27.9,00.0,37.7,31.0,18.3,0000.0,0003.88,0008.52,0003.20
2022-06-29 18:56:00,,0829.1,5.01,0.00,29.0,27.4,00.0,37.7,30.9,18.4,0000.0,0003.86,0007.81,0003.19
2022-06-29 18:57:00,,0828.9,4.99,0.00,29.0,27.0,00.0,37.6,30.7,18.2,0000.0,0003.87,0007.81,0003.18
2022-06-29 18:58:00,,0829.0,5.00,0.00,28.9,27.0,00.0,37.6,30.8,18.3,0000.0,0003.90,0007.90,0003.19
2022-06-29 18:59:00,,0828.9,5.00,0.00,28.9,27.2,00.0,37.6,30.8,18.6,0000.0,0003.94,0008.80,0003.19
